Flag for Finland Weather past 2 weeks in Mariehamn, Finland

Now
52 °F

Overcast.


Feels Like: 52 °F
Forecast: 53 / 59 °F
Wind: 1 mph from West

Location: Mariehamn / Aland Island

Current Time: Sep 5, 2015 at 3:19:20 AM

Latest Report: Sep 5, 2015 at 2:50 AM


Visibility: N/A

Pressure: 29.62 "Hg

Humidity: 100%

Dew point: 52 °F

Location of MariehamnLocation

Historic Weather in Mariehamn — Graph

°F

Mariehamn temperature yesterday

Maximum temperature yesterday: 63 °F (at 11:20 AM)
Minimum temperature yesterday: 50 °F (at 2:20 AM)
Average temperature yesterday: 57 °F

Past Weeks' High & Low Weather Summary

 TemperatureHumidityPressure
High77 °F (Aug 24, 1:50 PM)100% (Aug 21, 4:50 AM)30.45 "Hg (Aug 21, 4:50 AM)
Low43 °F (Aug 23, 3:50 AM)46% (Aug 28, 4:50 PM)29.62 "Hg (Aug 28, 3:50 AM)
Average62 °F83%29.97 "Hg
* Reported Aug 21 2:20 AM — Sep 5 2:20 AM, Mariehamn, Weather by CustomWeather, © 2015

Note: Actual official high and low records may vary slightly from our data, if they occured in-between our weather recording intervals... More about our weather records

Advertising

Mariehamn weather history for previous 24 hours

 ConditionsComfort  
Time TempWeatherWind HumidityBarometerVisibility
2:20 AM
Sat, Sep 5
52 °FOvercast.No wind94%29.62 "HgN/A
1:50 AM52 °FClear.No wind94%29.62 "Hg10 mi
1:20 AM50 °FClear.No wind94%29.62 "Hg10 mi
12:20 AM55 °FPassing clouds.5 mph94%29.65 "HgN/A
11:50 PM
Fri, Sep 4
55 °FClear.5 mph94%29.65 "Hg10 mi
11:20 PM57 °FClear.7 mph88%29.65 "Hg10 mi
10:50 PM59 °FPassing clouds.7 mph82%29.68 "HgN/A
10:20 PM59 °FPassing clouds.8 mph82%29.68 "HgN/A
9:50 PM59 °FClear.8 mph82%29.68 "Hg10 mi
9:20 PM59 °FScattered clouds.8 mph82%29.68 "HgN/A
8:50 PM59 °FScattered clouds.9 mph88%29.71 "HgN/A
8:20 PM59 °FBroken clouds.8 mph88%29.71 "HgN/A
7:50 PM61 °FPartly sunny.7 mph88%29.71 "HgN/A
7:20 PM61 °FSunny.7 mph88%29.71 "Hg10 mi
6:50 PM59 °FSunny.8 mph88%29.74 "Hg10 mi
6:20 PM61 °FPassing clouds.8 mph83%29.74 "HgN/A
5:50 PM61 °FSunny.6 mph77%29.74 "Hg10 mi
5:20 PM61 °FPassing clouds.6 mph77%29.77 "HgN/A
4:50 PM61 °FScattered clouds.8 mph83%29.77 "HgN/A
4:20 PM61 °FScattered clouds.7 mph88%29.77 "HgN/A
3:50 PM59 °FScattered clouds.7 mph94%29.80 "HgN/A
3:20 PM59 °FPassing clouds.6 mph94%29.80 "HgN/A
2:50 PM59 °FPassing clouds.5 mph88%29.80 "HgN/A
2:20 PM59 °FPassing clouds.5 mph88%29.83 "HgN/A
1:50 PM61 °FScattered clouds.6 mph83%29.83 "HgN/A
1:20 PM61 °FScattered clouds.6 mph83%29.83 "HgN/A
12:50 PM61 °FScattered clouds.8 mph83%29.83 "HgN/A
12:20 PM59 °FScattered clouds.8 mph88%29.83 "HgN/A
11:50 AM61 °FBroken clouds.9 mph83%29.83 "HgN/A
11:20 AM63 °FPartly sunny.5 mph77%29.83 "HgN/A
10:50 AM61 °FPassing clouds.5 mph83%29.83 "HgN/A
10:20 AM59 °FPartly sunny.5 mph82%29.86 "HgN/A
9:50 AM59 °FPartly sunny.5 mph88%29.86 "HgN/A
9:20 AM57 °FScattered clouds.6 mph88%29.86 "HgN/A
8:50 AM57 °FScattered clouds.2 mph88%29.86 "HgN/A
8:20 AM55 °FPartly sunny.1 mph94%29.86 "HgN/A
7:50 AM54 °FPartly sunny.No wind100%29.86 "HgN/A
7:20 AM54 °FPassing clouds.1 mph94%29.86 "HgN/A
6:50 AM54 °FPassing clouds.1 mph100%29.86 "HgN/A
6:20 AM55 °FPassing clouds.2 mph94%29.86 "HgN/A
5:50 AM55 °FPassing clouds.1 mph94%29.86 "HgN/A
5:20 AM55 °FOvercast.3 mph100%29.86 "HgN/A
4:50 AM54 °FPassing clouds.1 mph100%29.86 "HgN/A
4:20 AM54 °FPassing clouds.1 mph100%29.86 "HgN/A
3:50 AM54 °FPassing clouds.2 mph100%29.86 "HgN/A
3:20 AM54 °FPassing clouds.2 mph100%29.86 "HgN/A
Weather by CustomWeather, © 2015

See weather overviewHow to use our weather pages